Flag for Puerto Rico Weather past 2 weeks in Caguas, Puerto Rico

Now
74 °F

Passing clouds.


Feels Like: 73 °F
Forecast: 73 / 84 °F
Wind: 3 mph from Southeast

Location: Luis Munoz Marin

Current Time: Mar 6, 2015 at 6:08:39 AM

Latest Report: Mar 6, 2015 at 4:56 AM


Visibility: 10 mi

Pressure: 30.08 "Hg

Humidity: 85%

Dew point: 69 °F

Location of CaguasLocation

Historic Weather in Caguas — Graph

°F

Caguas temperature yesterday

Maximum temperature yesterday: 85 °F (at 11:56 AM)
Minimum temperature yesterday: 75 °F (at 5:56 AM)
Average temperature yesterday: 79 °F

Past Weeks' High & Low Weather Summary

 TemperatureHumidityPressure
High88 °F (Feb 19, 12:56 PM)100% (Feb 21, 3:56 AM)30.17 "Hg (Feb 21, 3:56 AM)
Low72 °F (Feb 23, 5:56 AM)53% (Feb 26, 2:56 PM)29.92 "Hg (Feb 20, 4:56 AM)
Average78 °F78%30.05 "Hg
* Reported Feb 19 4:56 AM — Mar 6 4:56 AM, Caguas, Weather by CustomWeather, © 2015

Note: Actual official high and low records may vary slightly from our data, if they occured in-between our weather recording intervals... More about our weather records

Advertising

Caguas weather history for previous 24 hours

 ConditionsComfort  
Time TempWeatherWind HumidityBarometerVisibility
4:56 AM
Fri, Mar 6
74 °FPassing clouds.3 mph85%30.08 "Hg10 mi
3:56 AM74 °FPassing clouds.No wind85%30.08 "Hg10 mi
2:56 AM74 °FPassing clouds.No wind88%30.08 "Hg10 mi
1:56 AM75 °FPassing clouds.5 mph85%30.10 "Hg10 mi
12:56 AM76 °FPassing clouds.7 mph82%30.12 "Hg10 mi
11:56 PM
Thu, Mar 5
75 °FPassing clouds.5 mph88%30.13 "Hg10 mi
10:56 PM75 °FPassing clouds.5 mph88%30.14 "Hg10 mi
9:56 PM75 °FPassing clouds.9 mph88%30.14 "Hg10 mi
8:56 PM76 °FPassing clouds.7 mph82%30.12 "Hg10 mi
7:56 PM78 °FPassing clouds.9 mph76%30.10 "Hg10 mi
6:56 PM78 °FScattered clouds.16 mph76%30.09 "Hg10 mi
5:56 PM80 °FScattered clouds.16 mph67%30.07 "Hg10 mi
4:56 PM80 °FScattered clouds.14 mph67%30.07 "Hg10 mi
3:56 PM83 °FScattered clouds.21 mph63%30.06 "Hg10 mi
2:56 PM83 °FScattered clouds.21 mph63%30.07 "Hg10 mi
1:56 PM84 °FScattered clouds.21 mph57%30.09 "Hg10 mi
12:56 PM85 °FScattered clouds.21 mph57%30.11 "Hg10 mi
11:56 AM85 °FScattered clouds.14 mph59%30.13 "Hg10 mi
10:56 AM81 °FBroken clouds.20 mph67%30.15 "Hg10 mi
9:56 AM80 °FScattered clouds.17 mph67%30.14 "Hg10 mi
8:56 AM79 °FScattered clouds.17 mph67%30.13 "Hg10 mi
7:56 AM78 °FScattered clouds.15 mph69%30.11 "Hg10 mi
6:56 AM76 °FPassing clouds.16 mph74%30.09 "Hg10 mi
Weather by CustomWeather, © 2015

See weather overviewHow to use our weather pages